Time,TemperatureF,DewpointF,PressureIn,WindDirection,WindDirectionDegrees,WindSpeedMPH,WindSpeedGustMPH,Humidity,HourlyPrecipIn,Conditions,Clouds,dailyrainin,SoftwareType,DateUTC
2013-01-16 00:04:00,31.7,27.0,30.21,NW,311,0.0,1.0,82,0.00,,,0.00,weatherlink.com 1.10,2013-01-16 05:04:00,
2013-01-16 00:19:00,31.8,28.0,30.21,NW,312,0.0,0.0,84,0.00,,,0.00,weatherlink.com 1.10,2013-01-16 05:19:00,
2013-01-16 00:34:00,31.9,28.0,30.21,NW,311,0.0,0.0,86,0.00,,,0.00,weatherlink.com 1.10,2013-01-16 05:34:00,
2013-01-16 00:49:00,32.1,28.0,30.22,NW,311,0.0,0.0,85,0.00,,,0.00,weatherlink.com 1.10,2013-01-16 05:49:00,
2013-01-16 01:04:00,32.3,27.0,30.21,NW,311,0.0,0.0,81,0.00,,,0.00,weatherlink.com 1.10,2013-01-16 06:04:00,
2013-01-16 01:19:00,32.5,28.0,30.21,NW,312,0.0,1.0,82,0.00,,,0.00,weatherlink.com 1.10,2013-01-16 06:19:00,
2013-01-16 01:34:00,32.5,27.0,30.20,NW,312,0.0,0.0,79,0.00,,,0.00,weatherlink.com 1.10,2013-01-16 06:34:00,
2013-01-16 01:49:00,32.6,27.0,30.20,NW,312,0.0,1.0,79,0.00,,,0.00,weatherlink.com 1.10,2013-01-16 06:49:00,
2013-01-16 02:04:00,32.7,28.0,30.21,NW,311,0.0,1.0,82,0.00,,,0.00,weatherlink.com 1.10,2013-01-16 07:04:00,
2013-01-16 02:19:00,32.7,26.0,30.20,NW,311,0.0,1.0,77,0.00,,,0.00,weatherlink.com 1.10,2013-01-16 07:19:00,
2013-01-16 02:34:00,32.7,27.0,30.20,NW,311,0.0,1.0,78,0.00,,,0.00,weatherlink.com 1.10,2013-01-16 07:34:00,
2013-01-16 02:49:00,32.8,28.0,30.19,NW,311,0.0,0.0,82,0.00,,,0.00,weatherlink.com 1.10,2013-01-16 07:49:00,
2013-01-16 03:04:00,32.7,27.0,30.20,NW,311,0.0,1.0,80,0.00,,,0.00,weatherlink.com 1.10,2013-01-16 08:04:00,
2013-01-16 03:19:00,32.8,28.0,30.18,NW,311,0.0,1.0,83,0.00,,,0.00,weatherlink.com 1.10,2013-01-16 08:19:00,
2013-01-16 03:34:00,32.7,27.0,30.17,NW,312,0.0,1.0,78,0.00,,,0.00,weatherlink.com 1.10,2013-01-16 08:34:00,
2013-01-16 03:49:00,32.7,27.0,30.15,NW,314,0.0,1.0,78,0.00,,,0.00,weatherlink.com 1.10,2013-01-16 08:49:00,
2013-01-16 04:04:00,32.5,26.0,30.15,NW,314,0.0,1.0,78,0.00,,,0.00,weatherlink.com 1.10,2013-01-16 09:04:00,
2013-01-16 04:19:00,32.3,27.0,30.14,NW,313,0.0,1.0,82,0.00,,,0.00,weatherlink.com 1.10,2013-01-16 09:19:00,
2013-01-16 04:34:00,31.3,28.0,30.14,NW,314,0.0,1.0,87,0.00,,,0.00,weatherlink.com 1.10,2013-01-16 09:34:00,
2013-01-16 04:49:00,30.8,28.0,30.14,NW,313,0.0,0.0,89,0.00,,,0.00,weatherlink.com 1.10,2013-01-16 09:49:00,
2013-01-16 05:04:00,30.1,28.0,30.13,NW,314,0.0,1.0,92,0.00,,,0.00,weatherlink.com 1.10,2013-01-16 10:04:00,
2013-01-16 05:19:00,30.0,28.0,30.12,NW,314,0.0,0.0,93,0.00,,,0.00,weatherlink.com 1.10,2013-01-16 10:19:00,
2013-01-16 05:49:00,29.8,28.0,30.12,NW,323,0.0,1.0,94,0.00,,,0.00,weatherlink.com 1.10,2013-01-16 10:49:00,
2013-01-16 06:04:00,29.7,29.0,30.11,North,350,0.0,1.0,95,0.00,,,0.00,weatherlink.com 1.10,2013-01-16 11:04:00,
2013-01-16 06:20:00,29.7,29.0,30.11,North,358,2.0,-999.0,95,-99.99,,,0.00,weatherlink.com 1.10,2013-01-16 11:20:00,
2013-01-16 06:34:00,29.4,28.0,30.10,North,6,1.0,3.0,95,0.00,,,0.00,weatherlink.com 1.10,2013-01-16 11:34:00,
2013-01-16 06:49:00,29.3,28.0,30.09,North,8,0.0,0.0,96,0.00,,,0.00,weatherlink.com 1.10,2013-01-16 11:49:00,
2013-01-16 07:05:00,29.3,28.0,30.10,North,9,0.0,1.0,96,0.00,,,0.00,weatherlink.com 1.10,2013-01-16 12:05:00,
2013-01-16 07:20:00,29.3,28.0,30.09,North,360,0.0,2.0,96,0.00,,,0.00,weatherlink.com 1.10,2013-01-16 12:20:00,
2013-01-16 07:35:00,29.3,28.0,30.08,North,354,0.0,1.0,96,0.00,,,0.00,weatherlink.com 1.10,2013-01-16 12:35:00,
2013-01-16 07:50:00,29.3,28.0,30.07,North,6,0.0,1.0,96,0.00,,,0.00,weatherlink.com 1.10,2013-01-16 12:50:00,
2013-01-16 08:05:00,29.3,28.0,30.07,WNW,283,0.0,1.0,96,0.00,,,0.00,weatherlink.com 1.10,2013-01-16 13:05:00,
2013-01-16 08:20:00,29.5,29.0,30.07,WNW,283,0.0,1.0,97,0.00,,,0.00,weatherlink.com 1.10,2013-01-16 13:20:00,
2013-01-16 08:35:00,29.6,29.0,30.08,WNW,284,0.0,0.0,97,0.00,,,0.00,weatherlink.com 1.10,2013-01-16 13:35:00,
2013-01-16 08:50:00,29.7,29.0,30.07,WNW,283,0.0,0.0,97,0.00,,,0.00,weatherlink.com 1.10,2013-01-16 13:50:00,
2013-01-16 09:05:00,29.9,29.0,30.06,WNW,283,0.0,0.0,97,0.00,,,0.00,weatherlink.com 1.10,2013-01-16 14:05:00,
2013-01-16 09:20:00,30.1,29.0,30.04,ESE,109,0.0,1.0,97,0.00,,,0.00,weatherlink.com 1.10,2013-01-16 14:20:00,
2013-01-16 09:35:00,30.4,30.0,30.02,NNE,20,0.0,2.0,97,0.00,,,0.00,weatherlink.com 1.10,2013-01-16 14:35:00,
2013-01-16 09:53:00,30.7,30.0,30.00,North,359,0.0,1.0,97,0.00,,,0.00,weatherlink.com 1.10,2013-01-16 14:53:00,
2013-01-16 10:05:00,31.1,30.0,29.99,NNE,16,0.0,1.0,96,0.00,,,0.00,weatherlink.com 1.10,2013-01-16 15:05:00,
2013-01-16 10:20:00,31.1,30.0,29.97,West,274,1.0,1.0,96,0.00,,,0.00,weatherlink.com 1.10,2013-01-16 15:20:00,
2013-01-16 10:35:00,31.3,30.0,29.94,North,349,0.0,3.0,96,0.00,,,0.00,weatherlink.com 1.10,2013-01-16 15:35:00,
2013-01-16 10:50:00,31.7,31.0,29.95,NNE,27,0.0,2.0,96,0.00,,,0.00,weatherlink.com 1.10,2013-01-16 15:50:00,
2013-01-16 11:05:00,31.7,31.0,29.95,NNW,342,1.0,2.0,96,0.00,,,0.00,weatherlink.com 1.10,2013-01-16 16:05:00,
2013-01-16 11:20:00,31.8,31.0,29.94,NE,39,2.0,2.0,97,0.00,,,0.00,weatherlink.com 1.10,2013-01-16 16:20:00,
2013-01-16 11:35:00,31.9,31.0,29.93,WNW,300,0.0,1.0,97,0.00,,,0.00,weatherlink.com 1.10,2013-01-16 16:35:00,
2013-01-16 11:50:00,31.9,31.0,29.91,North,359,0.0,1.0,97,0.00,,,0.00,weatherlink.com 1.10,2013-01-16 16:50:00,
2013-01-16 12:05:00,31.9,31.0,29.92,North,11,0.0,1.0,97,0.00,,,0.00,weatherlink.com 1.10,2013-01-16 17:05:00,
2013-01-16 12:20:00,31.9,31.0,29.92,West,269,0.0,1.0,97,0.00,,,0.00,weatherlink.com 1.10,2013-01-16 17:20:00,
2013-01-16 12:35:00,31.8,31.0,29.90,SE,134,0.0,2.0,97,0.00,,,0.00,weatherlink.com 1.10,2013-01-16 17:35:00,
2013-01-16 12:50:00,32.0,31.0,29.89,ESE,115,0.0,1.0,97,0.00,,,0.00,weatherlink.com 1.10,2013-01-16 17:50:00,
2013-01-16 13:05:00,32.1,31.0,29.90,NNE,26,0.0,1.0,97,0.00,,,0.00,weatherlink.com 1.10,2013-01-16 18:05:00,
2013-01-16 13:20:00,32.2,32.0,29.88,SSW,208,0.0,1.0,97,0.00,,,0.00,weatherlink.com 1.10,2013-01-16 18:20:00,
2013-01-16 13:38:00,32.2,32.0,29.88,SSW,208,0.0,0.0,97,0.00,,,0.00,weatherlink.com 1.10,2013-01-16 18:38:00,
2013-01-16 13:50:00,32.2,32.0,29.85,SE,127,0.0,1.0,97,0.00,,,0.00,weatherlink.com 1.10,2013-01-16 18:50:00,
2013-01-16 14:05:00,32.1,31.0,29.82,ESE,107,0.0,2.0,97,0.00,,,0.00,weatherlink.com 1.10,2013-01-16 19:05:00,
2013-01-16 14:20:00,32.0,31.0,29.83,NNW,334,0.0,2.0,97,0.00,,,0.00,weatherlink.com 1.10,2013-01-16 19:20:00,
2013-01-16 14:35:00,32.1,31.0,29.82,NW,308,0.0,1.0,97,0.00,,,0.00,weatherlink.com 1.10,2013-01-16 19:35:00,
2013-01-16 14:50:00,32.1,31.0,29.83,NW,309,0.0,1.0,97,0.00,,,0.00,weatherlink.com 1.10,2013-01-16 19:50:00,
2013-01-16 15:21:00,32.1,31.0,29.84,ENE,77,0.0,1.0,97,0.00,,,0.00,weatherlink.com 1.10,2013-01-16 20:21:00,
2013-01-16 15:36:00,32.1,32.0,29.84,NNE,15,0.0,2.0,98,0.00,,,0.00,weatherlink.com 1.10,2013-01-16 20:36:00,
2013-01-16 15:51:00,32.1,32.0,29.83,North,5,0.0,1.0,98,0.00,,,0.00,weatherlink.com 1.10,2013-01-16 20:51:00,
2013-01-16 16:06:00,32.1,32.0,29.83,North,5,0.0,1.0,98,0.00,,,0.00,weatherlink.com 1.10,2013-01-16 21:06:00,
2013-01-16 16:21:00,32.1,32.0,29.84,North,359,0.0,1.0,98,0.00,,,0.00,weatherlink.com 1.10,2013-01-16 21:21:00,
2013-01-16 16:36:00,32.1,32.0,29.83,NE,39,0.0,2.0,98,0.00,,,0.00,weatherlink.com 1.10,2013-01-16 21:36:00,
2013-01-16 16:53:00,32.1,32.0,29.83,NE,37,0.0,1.0,98,0.00,,,0.00,weatherlink.com 1.10,2013-01-16 21:53:00,
2013-01-16 17:21:00,32.1,32.0,29.83,NW,322,0.0,0.0,98,0.00,,,0.00,weatherlink.com 1.10,2013-01-16 22:21:00,
2013-01-16 17:36:00,32.1,32.0,29.84,NW,322,0.0,0.0,98,0.00,,,0.00,weatherlink.com 1.10,2013-01-16 22:36:00,
2013-01-16 17:51:00,32.1,32.0,29.84,NW,322,0.0,0.0,98,0.00,,,0.00,weatherlink.com 1.10,2013-01-16 22:51:00,
2013-01-16 18:06:00,32.0,32.0,29.83,NW,322,0.0,1.0,98,0.00,,,0.00,weatherlink.com 1.10,2013-01-16 23:06:00,
2013-01-16 18:36:00,32.0,32.0,29.84,NW,322,0.0,0.0,98,0.00,,,0.00,weatherlink.com 1.10,2013-01-16 23:36:00,
2013-01-16 18:51:00,32.0,32.0,29.83,NW,322,0.0,0.0,98,0.00,,,0.00,weatherlink.com 1.10,2013-01-16 23:51:00,
2013-01-16 19:06:00,32.0,32.0,29.83,NW,322,0.0,0.0,98,0.00,,,0.00,weatherlink.com 1.10,2013-01-17 00:06:00,
2013-01-16 19:21:00,32.0,32.0,29.82,NW,322,0.0,0.0,98,0.00,,,0.00,weatherlink.com 1.10,2013-01-17 00:21:00,
2013-01-16 19:36:00,32.0,32.0,29.82,NW,322,0.0,0.0,98,0.00,,,0.00,weatherlink.com 1.10,2013-01-17 00:36:00,
2013-01-16 19:51:00,32.0,32.0,29.82,NW,322,0.0,0.0,98,0.00,,,0.00,weatherlink.com 1.10,2013-01-17 00:51:00,
2013-01-16 20:06:00,32.0,32.0,29.83,NW,322,0.0,0.0,98,0.00,,,0.00,weatherlink.com 1.10,2013-01-17 01:06:00,
2013-01-16 20:21:00,32.0,32.0,29.84,NW,322,0.0,0.0,98,0.00,,,0.00,weatherlink.com 1.10,2013-01-17 01:21:00,
2013-01-16 20:36:00,32.0,32.0,29.83,NW,322,0.0,0.0,98,0.00,,,0.00,weatherlink.com 1.10,2013-01-17 01:36:00,
2013-01-16 20:51:00,32.0,32.0,29.83,NW,322,0.0,0.0,98,0.00,,,0.00,weatherlink.com 1.10,2013-01-17 01:51:00,
2013-01-16 21:06:00,32.0,32.0,29.82,NW,322,0.0,0.0,98,0.00,,,0.00,weatherlink.com 1.10,2013-01-17 02:06:00,
2013-01-16 21:21:00,32.0,32.0,29.82,NW,322,0.0,0.0,98,0.00,,,0.00,weatherlink.com 1.10,2013-01-17 02:21:00,
2013-01-16 21:36:00,32.0,32.0,29.82,NW,322,0.0,0.0,98,0.00,,,0.00,weatherlink.com 1.10,2013-01-17 02:36:00,
2013-01-16 21:51:00,32.0,32.0,29.82,NW,322,0.0,0.0,98,0.00,,,0.00,weatherlink.com 1.10,2013-01-17 02:51:00,
2013-01-16 22:06:00,32.0,32.0,29.82,NW,322,0.0,0.0,98,0.00,,,0.00,weatherlink.com 1.10,2013-01-17 03:06:00,
2013-01-16 22:21:00,32.0,32.0,29.83,NW,322,0.0,0.0,98,0.00,,,0.00,weatherlink.com 1.10,2013-01-17 03:21:00,
2013-01-16 22:36:00,32.0,32.0,29.82,NW,322,0.0,0.0,98,0.00,,,0.00,weatherlink.com 1.10,2013-01-17 03:36:00,
2013-01-16 22:51:00,32.0,32.0,29.82,NW,322,0.0,0.0,98,0.00,,,0.00,weatherlink.com 1.10,2013-01-17 03:51:00,
2013-01-16 23:06:00,32.1,32.0,29.81,NW,322,0.0,0.0,98,0.00,,,0.00,weatherlink.com 1.10,2013-01-17 04:06:00,
2013-01-16 23:21:00,32.2,32.0,29.81,SW,233,0.0,0.0,99,0.00,,,0.00,weatherlink.com 1.10,2013-01-17 04:21:00,
2013-01-16 23:36:00,32.3,32.0,29.82,WSW,238,0.0,0.0,99,0.00,,,0.00,weatherlink.com 1.10,2013-01-17 04:36:00,
2013-01-16 23:51:00,32.3,32.0,29.82,WSW,238,0.0,0.0,99,0.00,,,0.00,weatherlink.com 1.10,2013-01-17 04:51:00,